Station Historical Data
Daily Summary for September 9, 2017 Units:  English    Metric   Both
Next Day »
Daily Weekly Monthly Yearly Custom
  High: Low: Average:
Temperature: 81.8 °F 62.5 °F 71.6 °F
Dew Point: 55.7 °F 45.2 °F 50.4 °F
Humidity: 55% 35% 48%
Wind Speed: 14.0mph 0.0mph 2.7mph
Wind Gust: 17.0mph - -
Wind- - SSE
Pressure: 29.99 in 29.89 in -
Precipitation: 0.00 in    
Historical Graphs
 
 
Tabular Data for September 9, 2017
Time Temperature Dew Point Pressure Wind Wind Speed Wind Gust Humidity Rainfall Rate (Hourly) solar Conditions
00:02 66.3 °F 49.7 °F 29.89 in East 4.0 mph 8.0 mph 55% 0.00 in 0.00 W/m2
00:07 66.3 °F 49.7 °F 29.89 in East 7.0 mph 9.0 mph 55% 0.00 in 0.00 W/m2
00:12 66.2 °F 49.6 °F 29.89 in East 4.0 mph 8.0 mph 55% 0.00 in 0.00 W/m2
00:17 66.1 °F 49.5 °F 29.89 in Calm   9.0 mph 55% 0.00 in 0.00 W/m2
00:22 66.0 °F 49.4 °F 29.89 in East 5.0 mph 7.0 mph 55% 0.00 in 0.00 W/m2
00:27 66.0 °F 49.4 °F 29.89 in East 7.0 mph 8.0 mph 55% 0.00 in 0.00 W/m2
00:32 65.9 °F 49.3 °F 29.90 in East 6.0 mph 8.0 mph 55% 0.00 in 0.00 W/m2
00:37 65.9 °F 49.3 °F 29.90 in East 1.0 mph 9.0 mph 55% 0.00 in 0.00 W/m2
00:42 65.8 °F 49.2 °F 29.90 in ESE 5.0 mph 11.0 mph 55% 0.00 in 0.00 W/m2
00:47 65.7 °F 49.1 °F 29.90 in ESE 1.0 mph 9.0 mph 55% 0.00 in 0.00 W/m2
00:52 65.6 °F 49.0 °F 29.90 in ESE 6.0 mph 8.0 mph 55% 0.00 in 0.00 W/m2
00:57 65.6 °F 49.0 °F 29.90 in East 5.0 mph 11.0 mph 55% 0.00 in 0.00 W/m2
01:02 65.5 °F 48.9 °F 29.90 in Calm   11.0 mph 55% 0.00 in 0.00 W/m2
01:07 65.4 °F 48.8 °F 29.90 in East 1.0 mph 11.0 mph 55% 0.00 in 0.00 W/m2
01:12 65.2 °F 48.2 °F 29.90 in East 9.0 mph 9.0 mph 54% 0.00 in 0.00 W/m2
01:17 65.2 °F 48.2 °F 29.90 in East 8.0 mph 9.0 mph 54% 0.00 in 0.00 W/m2
01:22 65.2 °F 48.2 °F 29.90 in East 2.0 mph 7.0 mph 54% 0.00 in 0.00 W/m2
01:27 65.1 °F 48.1 °F 29.90 in Calm   6.0 mph 54% 0.00 in 0.00 W/m2
01:32 65.1 °F 48.1 °F 29.90 in East 2.0 mph 8.0 mph 54% 0.00 in 0.00 W/m2
01:37 65.0 °F 47.5 °F 29.90 in East 4.0 mph 8.0 mph 53% 0.00 in 0.00 W/m2
01:42 65.0 °F 47.5 °F 29.90 in East 5.0 mph 7.0 mph 53% 0.00 in 0.00 W/m2
01:47 65.0 °F 47.5 °F 29.90 in East 11.0 mph 11.0 mph 53% 0.00 in 0.00 W/m2
01:52 65.0 °F 47.5 °F 29.90 in Calm   9.0 mph 53% 0.00 in 0.00 W/m2
01:57 65.0 °F 47.5 °F 29.90 in East 8.0 mph 8.0 mph 53% 0.00 in 0.00 W/m2
02:02 65.0 °F 47.5 °F 29.90 in Calm   9.0 mph 53% 0.00 in 0.00 W/m2
02:07 65.0 °F 47.5 °F 29.90 in Calm   8.0 mph 53% 0.00 in 0.00 W/m2
02:12 65.0 °F 47.5 °F 29.91 in East 7.0 mph 8.0 mph 53% 0.00 in 0.00 W/m2
02:17 65.0 °F 47.5 °F 29.91 in East 8.0 mph 8.0 mph 53% 0.00 in 0.00 W/m2
02:22 65.0 °F 47.5 °F 29.90 in East 5.0 mph 12.0 mph 53% 0.00 in 0.00 W/m2
02:27 65.0 °F 47.5 °F 29.90 in Calm   12.0 mph 53% 0.00 in 0.00 W/m2
02:33 65.0 °F 47.0 °F 29.91 in East 7.0 mph 11.0 mph 52% 0.00 in 0.00 W/m2
02:38 65.0 °F 47.5 °F 29.91 in East 6.0 mph 11.0 mph 53% 0.00 in 0.00 W/m2
02:43 65.0 °F 47.5 °F 29.91 in East 6.0 mph 13.0 mph 53% 0.00 in 0.00 W/m2
02:48 65.1 °F 47.1 °F 29.91 in East 1.0 mph 8.0 mph 52% 0.00 in 0.00 W/m2
02:53 65.1 °F 47.1 °F 29.91 in East 9.0 mph 9.0 mph 52% 0.00 in 0.00 W/m2
02:58 65.2 °F 47.2 °F 29.91 in East 8.0 mph 11.0 mph 52% 0.00 in 0.00 W/m2
03:03 65.2 °F 47.2 °F 29.91 in East 1.0 mph 13.0 mph 52% 0.00 in 0.00 W/m2
03:08 65.3 °F 47.2 °F 29.90 in East 5.0 mph 11.0 mph 52% 0.00 in 0.00 W/m2
03:13 65.3 °F 47.2 °F 29.90 in Calm   12.0 mph 52% 0.00 in 0.00 W/m2
03:18 65.3 °F 46.7 °F 29.91 in ESE 2.0 mph 14.0 mph 51% 0.00 in 0.00 W/m2
03:23 65.4 °F 46.8 °F 29.91 in ESE 8.0 mph 15.0 mph 51% 0.00 in 0.00 W/m2
03:28 65.4 °F 46.8 °F 29.91 in East 11.0 mph 12.0 mph 51% 0.00 in 0.00 W/m2
03:33 65.4 °F 46.8 °F 29.91 in East 4.0 mph 15.0 mph 51% 0.00 in 0.00 W/m2
03:38 65.5 °F 46.9 °F 29.91 in East 6.0 mph 14.0 mph 51% 0.00 in 0.00 W/m2
03:43 65.5 °F 46.4 °F 29.91 in East 6.0 mph 13.0 mph 50% 0.00 in 0.00 W/m2
03:48 65.6 °F 46.5 °F 29.91 in ESE 7.0 mph 13.0 mph 50% 0.00 in 0.00 W/m2
03:53 65.5 °F 46.4 °F 29.91 in Calm   13.0 mph 50% 0.00 in 0.00 W/m2
03:58 65.6 °F 46.0 °F 29.91 in ESE 7.0 mph 15.0 mph 49% 0.00 in 0.00 W/m2
04:03 65.6 °F 46.0 °F 29.91 in ESE 9.0 mph 13.0 mph 49% 0.00 in 0.00 W/m2
04:08 65.6 °F 46.5 °F 29.91 in ESE 11.0 mph 13.0 mph 50% 0.00 in 0.00 W/m2
04:13 65.6 °F 46.5 °F 29.91 in ESE 6.0 mph 15.0 mph 50% 0.00 in 0.00 W/m2
04:18 65.6 °F 46.5 °F 29.91 in East 6.0 mph 15.0 mph 50% 0.00 in 0.00 W/m2
04:23 65.5 °F 46.4 °F 29.91 in ESE 9.0 mph 14.0 mph 50% 0.00 in 0.00 W/m2
04:28 65.5 °F 46.4 °F 29.92 in East 6.0 mph 13.0 mph 50% 0.00 in 0.00 W/m2
04:33 65.4 °F 46.3 °F 29.92 in ESE 2.0 mph 13.0 mph 50% 0.00 in 0.00 W/m2
04:38 65.3 °F 46.2 °F 29.92 in East 6.0 mph 14.0 mph 50% 0.00 in 0.00 W/m2
04:43 65.2 °F 46.1 °F 29.92 in East 12.0 mph 12.0 mph 50% 0.00 in 0.00 W/m2
04:48 65.2 °F 46.1 °F 29.92 in ESE 8.0 mph 12.0 mph 50% 0.00 in 0.00 W/m2
04:53 65.2 °F 46.1 °F 29.92 in East 4.0 mph 12.0 mph 50% 0.00 in 0.00 W/m2
04:58 65.1 °F 46.0 °F 29.92 in ESE 14.0 mph 14.0 mph 50% 0.00 in 0.00 W/m2
05:03 65.0 °F 45.9 °F 29.92 in ESE 5.0 mph 14.0 mph 50% 0.00 in 0.00 W/m2
05:08 65.0 °F 45.9 °F 29.92 in Calm   14.0 mph 50% 0.00 in 0.00 W/m2
05:13 64.9 °F 45.8 °F 29.93 in East 6.0 mph 11.0 mph 50% 0.00 in 0.00 W/m2
05:18 64.8 °F 46.3 °F 29.93 in East 4.0 mph 11.0 mph 51% 0.00 in 0.00 W/m2
05:23 64.7 °F 46.2 °F 29.93 in Calm   8.0 mph 51% 0.00 in 0.00 W/m2
05:28 64.5 °F 46.5 °F 29.93 in Calm   5.0 mph 52% 0.00 in 0.00 W/m2
05:33 64.1 °F 46.6 °F 29.93 in Calm   5.0 mph 53% 0.00 in 0.00 W/m2
05:38 63.8 °F 46.4 °F 29.93 in East 2.0 mph 6.0 mph 53% 0.00 in 0.00 W/m2
05:43 63.6 °F 46.2 °F 29.93 in ENE 4.0 mph 10.0 mph 53% 0.00 in 0.00 W/m2
05:48 63.5 °F 46.1 °F 29.93 in ENE 1.0 mph 5.0 mph 53% 0.00 in 0.00 W/m2
05:53 63.4 °F 46.0 °F 29.93 in ENE 5.0 mph 5.0 mph 53% 0.00 in 0.00 W/m2
05:58 63.2 °F 45.8 °F 29.93 in ENE 3.0 mph 5.0 mph 53% 0.00 in 0.00 W/m2
06:03 63.1 °F 45.7 °F 29.93 in Calm   3.0 mph 53% 0.00 in 0.00 W/m2
06:08 63.0 °F 46.1 °F 29.94 in Calm     54% 0.00 in 0.00 W/m2
06:13 62.9 °F 46.0 °F 29.94 in Calm     54% 0.00 in 0.00 W/m2
06:18 62.9 °F 46.0 °F 29.94 in Calm     54% 0.00 in 0.00 W/m2
06:23 62.9 °F 46.0 °F 29.94 in Calm   1.0 mph 54% 0.00 in 0.00 W/m2
06:28 62.8 °F 45.9 °F 29.94 in Calm     54% 0.00 in 0.00 W/m2
06:33 62.8 °F 45.9 °F 29.94 in ENE 3.0 mph 6.0 mph 54% 0.00 in 0.00 W/m2
06:38 62.7 °F 45.3 °F 29.94 in ENE 4.0 mph 7.0 mph 53% 0.00 in 5.00 W/m2
06:43 62.7 °F 45.3 °F 29.94 in East 1.0 mph 6.0 mph 53% 0.00 in 7.00 W/m2
06:48 62.6 °F 45.2 °F 29.95 in East 5.0 mph 6.0 mph 53% 0.00 in 9.00 W/m2
06:53 62.6 °F 45.2 °F 29.95 in East 3.0 mph 7.0 mph 53% 0.00 in 12.00 W/m2
06:58 62.5 °F 45.7 °F 29.95 in East 4.0 mph 6.0 mph 54% 0.00 in 18.00 W/m2
07:04 62.5 °F 45.2 °F 29.95 in East 1.0 mph 6.0 mph 53% 0.00 in 21.00 W/m2
07:09 62.5 °F 45.7 °F 29.95 in East 4.0 mph 6.0 mph 54% 0.00 in 30.00 W/m2
07:14 62.5 °F 45.7 °F 29.95 in East 7.0 mph 7.0 mph 54% 0.00 in 40.00 W/m2
07:19 62.5 °F 45.7 °F 29.95 in East 5.0 mph 7.0 mph 54% 0.00 in 51.00 W/m2
07:24 62.5 °F 45.7 °F 29.96 in East 5.0 mph 9.0 mph 54% 0.00 in 65.00 W/m2
07:29 62.5 °F 45.7 °F 29.96 in East 5.0 mph 8.0 mph 54% 0.00 in 79.00 W/m2
07:34 62.5 °F 45.7 °F 29.96 in Calm   9.0 mph 54% 0.00 in 93.00 W/m2
07:39 62.6 °F 45.7 °F 29.96 in East 4.0 mph 11.0 mph 54% 0.00 in 111.00 W/m2
07:44 62.6 °F 46.2 °F 29.96 in ESE 7.0 mph 9.0 mph 55% 0.00 in 128.00 W/m2
07:49 62.7 °F 46.3 °F 29.96 in ESE 7.0 mph 12.0 mph 55% 0.00 in 144.00 W/m2
07:54 62.8 °F 46.4 °F 29.96 in East 7.0 mph 14.0 mph 55% 0.00 in 163.00 W/m2
07:59 62.9 °F 46.5 °F 29.96 in East 1.0 mph 12.0 mph 55% 0.00 in 181.00 W/m2
08:04 63.0 °F 46.6 °F 29.97 in ESE 4.0 mph 12.0 mph 55% 0.00 in 202.00 W/m2
08:09 63.1 °F 46.7 °F 29.97 in ESE 12.0 mph 12.0 mph 55% 0.00 in 216.00 W/m2
08:15 63.3 °F 46.9 °F 29.97 in East 5.0 mph 12.0 mph 55% 0.00 in 241.00 W/m2
08:20 63.5 °F 47.1 °F 29.97 in East 5.0 mph 12.0 mph 55% 0.00 in 264.00 W/m2
08:25 63.6 °F 47.2 °F 29.97 in East 1.0 mph 12.0 mph 55% 0.00 in 279.00 W/m2
08:30 63.9 °F 47.0 °F 29.96 in ESE 9.0 mph 12.0 mph 54% 0.00 in 294.00 W/m2
08:35 64.1 °F 47.1 °F 29.96 in ESE 1.0 mph 15.0 mph 54% 0.00 in 309.00 W/m2
08:40 64.3 °F 46.8 °F 29.96 in East 9.0 mph 14.0 mph 53% 0.00 in 329.00 W/m2
08:45 64.6 °F 47.1 °F 29.96 in East 2.0 mph 13.0 mph 53% 0.00 in 339.00 W/m2
08:50 64.9 °F 47.4 °F 29.97 in East 5.0 mph 13.0 mph 53% 0.00 in 357.00 W/m2
08:55 65.2 °F 47.2 °F 29.97 in East 5.0 mph 11.0 mph 52% 0.00 in 374.00 W/m2
09:00 65.5 °F 47.4 °F 29.97 in East 2.0 mph 9.0 mph 52% 0.00 in 388.00 W/m2
09:05 65.8 °F 48.2 °F 29.97 in East 6.0 mph 13.0 mph 53% 0.00 in 401.00 W/m2
09:10 66.1 °F 48.0 °F 29.97 in ESE 5.0 mph 11.0 mph 52% 0.00 in 417.00 W/m2
09:15 66.4 °F 48.3 °F 29.97 in ESE 6.0 mph 11.0 mph 52% 0.00 in 434.00 W/m2
09:20 66.7 °F 48.5 °F 29.97 in ESE 2.0 mph 9.0 mph 52% 0.00 in 448.00 W/m2
09:25 67.0 °F 48.8 °F 29.98 in ESE 1.0 mph 8.0 mph 52% 0.00 in 462.00 W/m2
09:30 67.4 °F 49.2 °F 29.98 in Calm   11.0 mph 52% 0.00 in 475.00 W/m2
09:35 67.8 °F 49.5 °F 29.98 in ESE 6.0 mph 8.0 mph 52% 0.00 in 489.00 W/m2
09:40 68.1 °F 49.3 °F 29.98 in ESE 5.0 mph 12.0 mph 51% 0.00 in 503.00 W/m2
09:45 68.7 °F 49.9 °F 29.98 in Calm   9.0 mph 51% 0.00 in 520.00 W/m2
09:50 69.2 °F 50.3 °F 29.98 in ESE 9.0 mph 9.0 mph 51% 0.00 in 531.00 W/m2
09:55 69.6 °F 50.2 °F 29.98 in Calm   9.0 mph 50% 0.00 in 541.00 W/m2
10:00 69.9 °F 50.4 °F 29.98 in Calm   7.0 mph 50% 0.00 in 555.00 W/m2
10:05 70.3 °F 50.8 °F 29.98 in Calm   5.0 mph 50% 0.00 in 568.00 W/m2
10:10 70.8 °F 50.7 °F 29.98 in Calm   5.0 mph 49% 0.00 in 580.00 W/m2
10:15 71.3 °F 50.6 °F 29.98 in Calm   1.0 mph 48% 0.00 in 591.00 W/m2
10:20 71.7 °F 51.5 °F 29.98 in ESE 1.0 mph 5.0 mph 49% 0.00 in 603.00 W/m2
10:25 72.0 °F 49.5 °F 29.98 in Calm   6.0 mph 45% 0.00 in 615.00 W/m2
10:30 72.3 °F 49.2 °F 29.98 in ESE 4.0 mph 7.0 mph 44% 0.00 in 628.00 W/m2
10:36 72.7 °F 49.5 °F 29.97 in ESE 4.0 mph 9.0 mph 44% 0.00 in 642.00 W/m2
10:41 73.1 °F 49.3 °F 29.97 in ESE 4.0 mph 8.0 mph 43% 0.00 in 652.00 W/m2
10:46 73.5 °F 49.0 °F 29.97 in ESE 4.0 mph 5.0 mph 42% 0.00 in 664.00 W/m2
10:50 73.9 °F 50.0 °F 29.97 in Calm   6.0 mph 43% 0.00 in 673.00 W/m2
10:56 74.4 °F 51.7 °F 29.98 in Calm   5.0 mph 45% 0.00 in 684.00 W/m2
11:01 74.8 °F 51.5 °F 29.98 in Calm   5.0 mph 44% 0.00 in 693.00 W/m2
11:06 75.2 °F 51.8 °F 29.98 in Calm     44% 0.00 in 701.00 W/m2
11:11 75.6 °F 50.9 °F 29.97 in Calm   7.0 mph 42% 0.00 in 710.00 W/m2
11:16 76.0 °F 50.6 °F 29.97 in SE 2.0 mph 9.0 mph 41% 0.00 in 719.00 W/m2
11:21 76.3 °F 50.2 °F 29.98 in Calm   7.0 mph 40% 0.00 in 729.00 W/m2
11:26 76.7 °F 50.6 °F 29.97 in Calm   7.0 mph 40% 0.00 in 737.00 W/m2
11:31 77.1 °F 51.6 °F 29.97 in WSW 2.0 mph 7.0 mph 41% 0.00 in 744.00 W/m2
11:36 77.4 °F 52.5 °F 29.98 in Calm   6.0 mph 42% 0.00 in 751.00 W/m2
11:41 77.7 °F 52.8 °F 29.98 in Calm   6.0 mph 42% 0.00 in 758.00 W/m2
11:46 78.0 °F 51.8 °F 29.97 in Calm   9.0 mph 40% 0.00 in 763.00 W/m2
11:51 78.0 °F 52.4 °F 29.97 in Calm   5.0 mph 41% 0.00 in 768.00 W/m2
11:56 78.2 °F 53.2 °F 29.97 in Calm   8.0 mph 42% 0.00 in 775.00 W/m2
12:01 78.5 °F 52.9 °F 29.97 in West 5.0 mph 8.0 mph 41% 0.00 in 782.00 W/m2
12:06 79.0 °F 52.0 °F 29.97 in Calm   8.0 mph 39% 0.00 in 786.00 W/m2
12:11 79.3 °F 52.9 °F 29.97 in West 2.0 mph 7.0 mph 40% 0.00 in 784.00 W/m2
12:16 79.5 °F 52.4 °F 29.97 in West 3.0 mph 7.0 mph 39% 0.00 in 791.00 W/m2
12:21 79.6 °F 53.2 °F 29.97 in West 7.0 mph 7.0 mph 40% 0.00 in 791.00 W/m2
12:26 80.0 °F 52.8 °F 29.97 in SSW 4.0 mph 9.0 mph 39% 0.00 in 800.00 W/m2
12:31 80.5 °F 51.9 °F 29.97 in Calm   4.0 mph 37% 0.00 in 805.00 W/m2
12:36 81.0 °F 52.3 °F 29.97 in SW 1.0 mph 8.0 mph 37% 0.00 in 798.00 W/m2
12:41 81.3 °F 53.3 °F 29.97 in West 5.0 mph 9.0 mph 38% 0.00 in 802.00 W/m2
12:46 81.4 °F 53.4 °F 29.97 in Calm   7.0 mph 38% 0.00 in 809.00 W/m2
12:51 81.5 °F 52.7 °F 29.97 in West 4.0 mph 6.0 mph 37% 0.00 in 803.00 W/m2
12:56 81.6 °F 53.6 °F 29.97 in WSW 5.0 mph 9.0 mph 38% 0.00 in 800.00 W/m2
13:01 81.5 °F 54.2 °F 29.97 in Calm   9.0 mph 39% 0.00 in 809.00 W/m2
13:06 81.5 °F 52.7 °F 29.97 in West 10.0 mph 10.0 mph 37% 0.00 in 798.00 W/m2
13:11 81.7 °F 52.9 °F 29.97 in WSW 5.0 mph 11.0 mph 37% 0.00 in 802.00 W/m2
13:16 81.7 °F 53.7 °F 29.96 in Calm   8.0 mph 38% 0.00 in 798.00 W/m2
13:21 81.6 °F 53.6 °F 29.97 in NW 2.0 mph 10.0 mph 38% 0.00 in 796.00 W/m2
13:26 81.2 °F 53.9 °F 29.97 in Calm   10.0 mph 39% 0.00 in 793.00 W/m2
13:31 81.1 °F 53.1 °F 29.97 in WNW 9.0 mph 11.0 mph 38% 0.00 in 791.00 W/m2
13:36 80.9 °F 52.9 °F 29.97 in WNW 3.0 mph 10.0 mph 38% 0.00 in 788.00 W/m2
13:41 80.8 °F 52.8 °F 29.97 in West 7.0 mph 12.0 mph 38% 0.00 in 786.00 W/m2
13:46 81.0 °F 53.0 °F 29.97 in West 5.0 mph 9.0 mph 38% 0.00 in 786.00 W/m2
13:51 81.2 °F 52.5 °F 29.97 in WNW 12.0 mph 12.0 mph 37% 0.00 in 775.00 W/m2
13:56 81.4 °F 53.4 °F 29.96 in WNW 1.0 mph 13.0 mph 38% 0.00 in 777.00 W/m2
14:01 81.2 °F 53.2 °F 29.97 in West 3.0 mph 12.0 mph 38% 0.00 in 761.00 W/m2
14:06 81.2 °F 53.9 °F 29.97 in NNW 1.0 mph 17.0 mph 39% 0.00 in 763.00 W/m2
14:11 81.4 °F 53.4 °F 29.97 in NW 6.0 mph 11.0 mph 38% 0.00 in 761.00 W/m2
14:16 81.3 °F 53.3 °F 29.97 in Calm   8.0 mph 38% 0.00 in 752.00 W/m2
14:21 81.3 °F 54.0 °F 29.96 in WNW 10.0 mph 10.0 mph 39% 0.00 in 745.00 W/m2
14:22 81.3 °F 54.0 °F 29.96 in WSW 9.0 mph 12.0 mph 39% 0.00 in 742.00 W/m2
14:27 81.4 °F 53.4 °F 29.97 in WNW 4.0 mph 8.0 mph 38% 0.00 in 724.00 W/m2
14:32 81.3 °F 53.3 °F 29.97 in West 5.0 mph 11.0 mph 38% 0.00 in 728.00 W/m2
14:37 81.1 °F 53.8 °F 29.97 in Calm   9.0 mph 39% 0.00 in 715.00 W/m2
14:42 81.0 °F 53.0 °F 29.96 in WSW 3.0 mph 6.0 mph 38% 0.00 in 710.00 W/m2
14:47 81.1 °F 53.8 °F 29.96 in Calm   8.0 mph 39% 0.00 in 705.00 W/m2
14:52 81.2 °F 53.9 °F 29.96 in West 4.0 mph 7.0 mph 39% 0.00 in 693.00 W/m2
14:57 81.5 °F 53.5 °F 29.96 in WSW 2.0 mph 9.0 mph 38% 0.00 in 684.00 W/m2
15:03 81.8 °F 53.7 °F 29.96 in Calm   5.0 mph 38% 0.00 in 675.00 W/m2
15:08 81.6 °F 54.3 °F 29.96 in NW 4.0 mph 7.0 mph 39% 0.00 in 666.00 W/m2
15:13 81.1 °F 53.8 °F 29.96 in WSW 3.0 mph 8.0 mph 39% 0.00 in 657.00 W/m2
15:18 81.0 °F 53.0 °F 29.96 in Calm   7.0 mph 38% 0.00 in 643.00 W/m2
15:23 80.9 °F 52.2 °F 29.96 in WNW 5.0 mph 6.0 mph 37% 0.00 in 628.00 W/m2
15:28 81.0 °F 53.7 °F 29.97 in West 2.0 mph 4.0 mph 39% 0.00 in 617.00 W/m2
15:33 80.9 °F 53.7 °F 29.96 in WNW 6.0 mph 6.0 mph 39% 0.00 in 606.00 W/m2
15:38 80.8 °F 52.1 °F 29.97 in Calm   5.0 mph 37% 0.00 in 591.00 W/m2
15:44 80.9 °F 52.2 °F 29.96 in Calm   5.0 mph 37% 0.00 in 584.00 W/m2
15:48 80.7 °F 50.5 °F 29.96 in WNW 2.0 mph 5.0 mph 35% 0.00 in 571.00 W/m2
15:53 80.7 °F 51.3 °F 29.96 in Calm   4.0 mph 36% 0.00 in 561.00 W/m2
15:58 80.7 °F 51.3 °F 29.96 in Calm   5.0 mph 36% 0.00 in 547.00 W/m2
16:04 80.7 °F 51.3 °F 29.96 in Calm   6.0 mph 36% 0.00 in 536.00 W/m2
16:09 80.7 °F 52.0 °F 29.96 in Calm   6.0 mph 37% 0.00 in 517.00 W/m2
16:14 80.8 °F 52.1 °F 29.95 in West 7.0 mph 7.0 mph 37% 0.00 in 503.00 W/m2
16:19 80.9 °F 52.2 °F 29.96 in Calm   1.0 mph 37% 0.00 in 489.00 W/m2
16:24 81.0 °F 52.3 °F 29.96 in West 1.0 mph 5.0 mph 37% 0.00 in 475.00 W/m2
16:29 81.1 °F 52.4 °F 29.95 in Calm   6.0 mph 37% 0.00 in 462.00 W/m2
16:34 81.2 °F 52.5 °F 29.96 in West 2.0 mph 6.0 mph 37% 0.00 in 446.00 W/m2
16:39 81.3 °F 52.6 °F 29.96 in WNW 1.0 mph 1.0 mph 37% 0.00 in 436.00 W/m2
16:44 81.4 °F 51.9 °F 29.96 in Calm   5.0 mph 36% 0.00 in 418.00 W/m2
16:49 81.4 °F 52.7 °F 29.96 in West 4.0 mph 5.0 mph 37% 0.00 in 399.00 W/m2
16:54 81.4 °F 52.7 °F 29.96 in West 2.0 mph 2.0 mph 37% 0.00 in 383.00 W/m2
16:59 81.4 °F 51.9 °F 29.96 in Calm   2.0 mph 36% 0.00 in 374.00 W/m2
17:04 81.4 °F 52.7 °F 29.96 in Calm   4.0 mph 37% 0.00 in 357.00 W/m2
17:09 81.5 °F 52.7 °F 29.95 in Calm   3.0 mph 37% 0.00 in 345.00 W/m2
17:14 81.5 °F 52.7 °F 29.96 in WNW 2.0 mph 6.0 mph 37% 0.00 in 323.00 W/m2
17:19 81.4 °F 52.7 °F 29.96 in West 1.0 mph 4.0 mph 37% 0.00 in 311.00 W/m2
17:24 81.3 °F 52.6 °F 29.96 in Calm   4.0 mph 37% 0.00 in 297.00 W/m2
17:29 81.3 °F 52.6 °F 29.96 in Calm   1.0 mph 37% 0.00 in 279.00 W/m2
17:34 81.3 °F 54.0 °F 29.96 in Calm   3.0 mph 39% 0.00 in 262.00 W/m2
17:39 81.1 °F 53.1 °F 29.96 in Calm     38% 0.00 in 244.00 W/m2
17:44 80.9 °F 52.9 °F 29.96 in Calm   1.0 mph 38% 0.00 in 234.00 W/m2
17:49 80.6 °F 53.4 °F 29.96 in Calm   1.0 mph 39% 0.00 in 216.00 W/m2
17:54 80.6 °F 54.1 °F 29.95 in Calm   1.0 mph 40% 0.00 in 199.00 W/m2
17:59 80.5 °F 54.7 °F 29.95 in Calm   1.0 mph 41% 0.00 in 183.00 W/m2
18:04 80.3 °F 54.5 °F 29.95 in Calm   1.0 mph 41% 0.00 in 169.00 W/m2
18:09 80.2 °F 55.0 °F 29.95 in Calm   1.0 mph 42% 0.00 in 155.00 W/m2
18:14 80.1 °F 55.0 °F 29.95 in Calm   1.0 mph 42% 0.00 in 137.00 W/m2
18:19 79.8 °F 55.3 °F 29.95 in Calm     43% 0.00 in 120.00 W/m2
18:24 79.5 °F 55.1 °F 29.95 in Calm     43% 0.00 in 102.00 W/m2
18:29 79.1 °F 55.3 °F 29.95 in Calm   1.0 mph 44% 0.00 in 86.00 W/m2
18:34 78.6 °F 55.5 °F 29.95 in Calm     45% 0.00 in 72.00 W/m2
18:39 78.3 °F 54.6 °F 29.95 in Calm     44% 0.00 in 60.00 W/m2
18:44 78.1 °F 55.0 °F 29.95 in Calm     45% 0.00 in 47.00 W/m2
18:49 77.8 °F 55.4 °F 29.95 in Calm   1.0 mph 46% 0.00 in 37.00 W/m2
18:54 77.3 °F 55.5 °F 29.95 in Calm     47% 0.00 in 30.00 W/m2
18:59 77.0 °F 55.2 °F 29.95 in Calm   1.0 mph 47% 0.00 in 23.00 W/m2
19:04 76.7 °F 55.5 °F 29.95 in Calm   1.0 mph 48% 0.00 in 19.00 W/m2
19:09 76.2 °F 55.7 °F 29.95 in Calm   2.0 mph 49% 0.00 in 14.00 W/m2
19:14 75.5 °F 55.0 °F 29.95 in Calm   1.0 mph 49% 0.00 in 11.00 W/m2
19:19 74.8 °F 54.4 °F 29.95 in Calm     49% 0.00 in 7.00 W/m2
19:24 74.4 °F 54.6 °F 29.95 in Calm     50% 0.00 in 0.00 W/m2
19:29 73.9 °F 54.1 °F 29.95 in Calm     50% 0.00 in 0.00 W/m2
19:34 73.7 °F 53.9 °F 29.95 in Calm     50% 0.00 in 0.00 W/m2
19:39 73.5 °F 53.7 °F 29.95 in Calm     50% 0.00 in 0.00 W/m2
19:44 73.2 °F 54.0 °F 29.95 in Calm     51% 0.00 in 0.00 W/m2
19:50 72.9 °F 53.7 °F 29.95 in Calm     51% 0.00 in 0.00 W/m2
19:55 72.6 °F 53.5 °F 29.96 in Calm     51% 0.00 in 0.00 W/m2
20:00 72.3 °F 53.7 °F 29.96 in Calm     52% 0.00 in 0.00 W/m2
20:05 72.1 °F 53.5 °F 29.96 in Calm     52% 0.00 in 0.00 W/m2
20:10 71.9 °F 53.3 °F 29.96 in Calm     52% 0.00 in 0.00 W/m2
20:15 71.7 °F 53.2 °F 29.96 in Calm     52% 0.00 in 0.00 W/m2
20:20 71.5 °F 53.0 °F 29.96 in Calm     52% 0.00 in 0.00 W/m2
20:25 71.4 °F 52.9 °F 29.96 in Calm     52% 0.00 in 0.00 W/m2
20:30 71.3 °F 53.3 °F 29.96 in Calm   1.0 mph 53% 0.00 in 0.00 W/m2
20:35 71.2 °F 53.2 °F 29.97 in Calm     53% 0.00 in 0.00 W/m2
20:40 71.1 °F 53.1 °F 29.97 in Calm     53% 0.00 in 0.00 W/m2
20:45 71.0 °F 53.0 °F 29.97 in Calm     53% 0.00 in 0.00 W/m2
20:50 70.9 °F 53.4 °F 29.97 in Calm     54% 0.00 in 0.00 W/m2
20:55 70.8 °F 53.3 °F 29.97 in Calm     54% 0.00 in 0.00 W/m2
21:00 70.7 °F 53.3 °F 29.97 in Calm     54% 0.00 in 0.00 W/m2
21:05 70.7 °F 53.3 °F 29.97 in Calm     54% 0.00 in 0.00 W/m2
21:10 70.8 °F 53.3 °F 29.97 in Calm   2.0 mph 54% 0.00 in 0.00 W/m2
21:15 70.7 °F 53.3 °F 29.98 in Calm     54% 0.00 in 0.00 W/m2
21:20 70.6 °F 53.2 °F 29.98 in Calm     54% 0.00 in 0.00 W/m2
21:25 70.6 °F 53.2 °F 29.97 in Calm   1.0 mph 54% 0.00 in 0.00 W/m2
21:30 70.4 °F 53.0 °F 29.97 in Calm     54% 0.00 in 0.00 W/m2
21:35 70.3 °F 52.9 °F 29.97 in Calm   4.0 mph 54% 0.00 in 0.00 W/m2
21:40 70.3 °F 52.9 °F 29.97 in Calm   6.0 mph 54% 0.00 in 0.00 W/m2
21:45 70.2 °F 52.3 °F 29.98 in West 4.0 mph 4.0 mph 53% 0.00 in 0.00 W/m2
21:50 70.2 °F 52.3 °F 29.98 in Calm   7.0 mph 53% 0.00 in 0.00 W/m2
21:55 70.2 °F 52.3 °F 29.98 in ESE 2.0 mph 6.0 mph 53% 0.00 in 0.00 W/m2
22:00 70.1 °F 52.2 °F 29.98 in East 2.0 mph 8.0 mph 53% 0.00 in 0.00 W/m2
22:05 70.1 °F 51.7 °F 29.98 in East 4.0 mph 7.0 mph 52% 0.00 in 0.00 W/m2
22:07 70.1 °F 51.7 °F 29.98 in East 2.0 mph 8.0 mph 52% 0.00 in 0.00 W/m2
22:12 70.0 °F 51.6 °F 29.98 in East 5.0 mph 7.0 mph 52% 0.00 in 0.00 W/m2
22:17 69.9 °F 51.5 °F 29.98 in East 1.0 mph 9.0 mph 52% 0.00 in 0.00 W/m2
22:22 69.9 °F 51.5 °F 29.98 in East 4.0 mph 6.0 mph 52% 0.00 in 0.00 W/m2
22:27 69.9 °F 51.0 °F 29.98 in Calm   7.0 mph 51% 0.00 in 0.00 W/m2
22:32 69.9 °F 51.0 °F 29.98 in East 2.0 mph 7.0 mph 51% 0.00 in 0.00 W/m2
22:37 69.9 °F 51.0 °F 29.98 in East 1.0 mph 6.0 mph 51% 0.00 in 0.00 W/m2
22:43 69.9 °F 51.0 °F 29.98 in Calm   6.0 mph 51% 0.00 in 0.00 W/m2
22:48 69.8 °F 50.9 °F 29.98 in East 5.0 mph 6.0 mph 51% 0.00 in 0.00 W/m2
22:53 69.8 °F 50.9 °F 29.98 in East 1.0 mph 6.0 mph 51% 0.00 in 0.00 W/m2
22:58 69.7 °F 50.8 °F 29.98 in East 1.0 mph 5.0 mph 51% 0.00 in 0.00 W/m2
23:03 69.6 °F 50.7 °F 29.98 in Calm   4.0 mph 51% 0.00 in 0.00 W/m2
23:08 69.4 °F 50.5 °F 29.99 in Calm   7.0 mph 51% 0.00 in 0.00 W/m2
23:13 69.2 °F 50.3 °F 29.98 in East 4.0 mph 5.0 mph 51% 0.00 in 0.00 W/m2
23:18 69.1 °F 50.8 °F 29.98 in Calm     52% 0.00 in 0.00 W/m2
23:23 69.0 °F 50.1 °F 29.98 in East 4.0 mph 5.0 mph 51% 0.00 in 0.00 W/m2
23:28 69.0 °F 50.7 °F 29.98 in Calm   1.0 mph 52% 0.00 in 0.00 W/m2
23:33 68.8 °F 50.5 °F 29.98 in Calm     52% 0.00 in 0.00 W/m2
23:38 68.6 °F 50.3 °F 29.98 in East 4.0 mph 5.0 mph 52% 0.00 in 0.00 W/m2
23:43 68.5 °F 49.7 °F 29.98 in East 1.0 mph 5.0 mph 51% 0.00 in 0.00 W/m2
23:48 68.4 °F 50.1 °F 29.98 in East 2.0 mph 4.0 mph 52% 0.00 in 0.00 W/m2
23:53 68.4 °F 50.1 °F 29.98 in Calm   2.0 mph 52% 0.00 in 0.00 W/m2
23:58 68.3 °F 50.0 °F 29.98 in East 4.0 mph 6.0 mph 52% 0.00 in 0.00 W/m2
Foresthill Weather
 WU-history PHP script courtesy of   Juneau County Weather.
powered by Cumulus v1.9.3 (1059)
Ambient Weather VWS v14.00
Top Contact Website Map Copyright © 2007 - 2018 Foresthillweather.com Never base important decisions on this or any weather information obtained from the Internet